User: anonymous   Login
Location: Dappach
(48.9767°N, 9.6998°E)
Time: 09:55:03
(UTC+00:00)
Language:

ADEOS II - Orbit

View from above orbital plane
View from above orbital plane
View from above satellite
View from above satellite

Ground track
Ground track

The orbit data is extracted from the following two-line orbital elements,

1 27597U 02056A   24200.83961191  .00000849  00000-0  35721-3 0  9991
2 27597  98.6926 147.3998 0000865  31.0139 329.1093 14.28415593124779
Epoch (UTC): 18 July 2024 20:09:02
Eccentricity: 0.0000865
inclination: 98.6926°
perigee height: 796 km
apogee height: 797 km
right ascension of ascending node: 147.3998°
argument of perigee: 31.0139°
revolutions per day: 14.28415593
mean anomaly at epoch: 329.1093°
orbit number at epoch: 12477

The dashed part of the orbit path shows where the satellite is in the earth's shadow,  

DLR